Find Starlink 32388

NORAD ID: 62144 Int'l Des: 2024-224 Owner: SPXS Country: US Constellation: starlink operational
LEOCIRCULAR

現在のビュー

3D地球を読み込み中...

About Starlink 32388

Starlink 32388 (NORAD 62144) is a starlink constellation satellite (v2 mini) launched Nov 30, 2024 by SPXS of US. It operates in LEO, CIRCULAR orbit with a mass of 730.00 kg.

次回通過

Passes for default location (London). Set your location on the main map for personalized predictions.

高度履歴

Loading altitude history...

軌道要素

1 62144U 24224F 26264.06502046 .00009032 00000-0 33720-3 0 9996
2 62144 43.0019 142.2085 0001354 276.1527 83.9170 15.27592530102270
Epoch: Sep 21, 2026 • Age: 52 hours

現在のステータス

高度 486.4 km
遠地点 / 近地点 N/A
速度 7.63 km/s
衛星直下点 40.59°N, 154.55°E
打ち上げ日 Nov 30, 2024
運用期間 1.8 years
タイプ internet

技術仕様

分類 Payload
質量 730.00 kg
乾燥質量 700.00 kg
長さ 0.30 m
スパン 29.00 m
形状 ? Box + pan
製造者 SPXS
バスタイプ Starlink V2M
フェーズステータス In Orbit
所有者/国 SPXS/US

Most Searched